Regional Weather Roundup
Issued by NWS

Home | Current Version | Previous Version | Text Only | Print | Product List | Glossary On
Versions: 1 2 3 4 5 6 7 8 9 10 11 12 13 14 15 16 17 18 19 20 21 22 23 24 25 26 27 28 29 30 31 32 33 34 35 36 37 38 39 40 41 42 43 44 45 46 47 48 49 50
000
ASUS44 KBMX 251510
RWRAL

ALABAMA REGIONAL WEATHER ROUNDUP
NATIONAL WEATHER SERVICE BIRMINGHAM AL
1000 AM CDT THU AUG 25 2016

NOTE: "FAIR" INDICATES FEW OR NO CLOUDS BELOW 12,000 FEET
WITH NO SIGNIFICANT WEATHER AND/OR OBSTRUCTIONS TO VISIBILITY.

THE REMARK "TC" DENOTES TEMPERATURE IN DEGREES CELSIUS.

ALZ001>011-014-016>018-020-251600-
NORTH ALABAMA

CITY           SKY/WX    TMP DP  RH WIND       PRES   REMARKS
MUSCLE SHOALS  SUNNY     88  76  67 S6        30.18S HX  99
HUNTSVILLE     MOSUNNY   85  73  67 VRB3      30.18F HX  91
DECATUR        SUNNY     86  75  69 CALM      30.18F HX  95
HALEYVILLE     FAIR      86  75  69 S5        30.21S HX  95
GADSDEN        SUNNY     84  73  69 W5        30.21S HX  90
$$

ALZ012-013-022-023-030>036-040>044-251600-
WEST CENTRAL ALABAMA

CITY           SKY/WX    TMP DP  RH WIND       PRES   REMARKS
TUSCALOOSA     SUNNY     87  76  69 CALM      30.16S HX  97
$$

ALZ015-024>027-033>036-040>044-251600-
CENTRAL ALABAMA

CITY           SKY/WX    TMP DP  RH WIND       PRES   REMARKS
BIRMINGHAM     MOSUNNY   84  74  71 S3        30.22S HX  91
MONTGOMERY     MOSUNNY   87  70  56 SE7       30.18S HX  92
SHELBY CO ARPT SUNNY     84  74  71 VRB3      30.19S HX  91
MAXWELL AFB    MOSUNNY   85  71  62 SE6       30.18S HX  91
GREENVILLE     PTSUNNY   82  71  69 SE6       30.18S
$$

ALZ019-021-028-029-037-038-045>048-251600-
EAST CENTRAL ALABAMA

CITY           SKY/WX    TMP DP  RH WIND       PRES   REMARKS
ANNISTON       PTSUNNY   84  70  62 CALM      30.21S
ALEXANDER CITY SUNNY     84  77  79 S3        30.22R HX  93
AUBURN         NOT AVBL
$$

ALZ051>064-251600-
SOUTHWEST ALABAMA

CITY           SKY/WX    TMP DP  RH WIND       PRES   REMARKS
MOBILE         PTSUNNY   85  75  72 NE13      30.15S HX  93
BROOKLEY FIELD MOSUNNY   86  77  74 NE12      30.15S HX  97
EVERGREEN      CLOUDY    81  74  79 E8        30.18R
$$

ALZ049-050-065>069-251600-
SOUTHEAST ALABAMA

CITY           SKY/WX    TMP DP  RH WIND       PRES   REMARKS
DOTHAN         CLOUDY    79  75  87 NE5       30.22R
OZARK          CLOUDY    81  74  79 CALM      30.18S
TROY           MOSUNNY   83  72  69 VRB7      30.20S
EUFAULA        PTSUNNY   85  69  58 VRB3      30.18S
$$



USA.gov is the U.S. government's official web portal to all federal, state and local government web resources and services.